timestamp,surface_pressure_avg,surface_temp_avg,battery_voltage,lat,long
2020-12-10 00:09:01+00:00,256.5464,6.5,12.65,47.84626,-54.09684
2020-12-10 00:19:01+00:00,250.3665,6.5,12.65,47.84626,-54.09684
2020-12-10 00:29:01+00:00,246.0964,6.5,12.65,47.84626,-54.09684
2020-12-10 00:39:01+00:00,249.4081,6.5,12.65,47.84626,-54.09684
2020-12-10 00:49:01+00:00,252.8898,6.5,12.65,47.84626,-54.09684
2020-12-10 00:59:01+00:00,249.4631,6.52,12.65,47.84626,-54.09684
2020-12-10 01:09:01+00:00,248.7881,6.53,12.65,47.84626,-54.09684
2020-12-10 01:19:01+00:00,252.2181,6.53,12.65,47.84626,-54.09684
2020-12-10 01:29:01+00:00,252.3747,6.51,12.65,47.84626,-54.09684
2020-12-10 01:39:01+00:00,252.3914,6.5,12.65,47.84626,-54.09684
2020-12-10 01:49:01+00:00,256.1631,6.5,12.65,47.84626,-54.09684
2020-12-10 01:59:01+00:00,260.8247,6.5,12.65,47.84626,-54.09684
2020-12-10 02:09:01+00:00,261.1414,6.5,12.65,47.84626,-54.09684
2020-12-10 02:19:01+00:00,263.4681,6.5,12.65,47.84626,-54.09684
2020-12-10 02:29:01+00:00,268.0681,6.5,12.65,47.84626,-54.09684
2020-12-10 02:39:01+00:00,271.0797,6.5,12.65,47.84626,-54.09684
2020-12-10 02:49:01+00:00,272.4648,6.5,12.65,47.84626,-54.09684
2020-12-10 02:59:01+00:00,275.0164,6.5,12.65,47.84626,-54.09684
2020-12-10 03:09:01+00:00,275.8264,6.4,12.65,47.84626,-54.09684
2020-12-10 03:19:01+00:00,279.1014,6.4,12.65,47.84626,-54.09684
2020-12-10 03:29:01+00:00,279.0613,6.4,12.65,47.84626,-54.09684
2020-12-10 03:39:01+00:00,277.3814,6.4,12.65,47.84626,-54.09684
2020-12-10 03:49:01+00:00,282.5314,6.44,12.65,47.84626,-54.09684
2020-12-10 03:59:01+00:00,288.6346,6.5,12.65,47.84626,-54.09684
2020-12-10 04:09:01+00:00,283.8548,6.5,12.65,47.84626,-54.09684
2020-12-10 04:19:01+00:00,284.0397,6.5,12.65,47.84626,-54.09684
2020-12-10 04:29:01+00:00,297.163,6.5,12.65,47.84626,-54.09684
2020-12-10 04:39:01+00:00,304.878,6.5,12.65,47.84626,-54.09684
2020-12-10 04:49:01+00:00,301.6514,6.49,12.65,47.84626,-54.09684
2020-12-10 04:59:01+00:00,308.358,6.44,12.65,47.84626,-54.09684
2020-12-10 05:09:01+00:00,322.3147,6.46,12.65,47.84626,-54.09684
2020-12-10 05:19:01+00:00,324.1047,6.4,12.65,47.84626,-54.09684
2020-12-10 05:29:01+00:00,322.978,6.4,12.65,47.84626,-54.09684
2020-12-10 05:39:01+00:00,335.333,6.4,12.65,47.84626,-54.09684
2020-12-10 05:49:01+00:00,342.8962,6.4,12.65,47.84626,-54.09684
2020-12-10 05:59:01+00:00,340.67800000000005,6.4,12.65,47.84626,-54.09684
2020-12-10 06:09:01+00:00,345.9763,6.46,12.65,47.84626,-54.09684
2020-12-10 06:19:01+00:00,354.0796,6.5,12.57,47.84626,-54.09684
2020-12-10 06:29:01+00:00,351.1396,6.4,12.57,47.84626,-54.09684
2020-12-10 06:39:01+00:00,349.9846,6.4,12.57,47.84626,-54.09684
2020-12-10 06:49:01+00:00,356.543,6.4,12.57,47.84626,-54.09684
2020-12-10 06:59:01+00:00,360.8929,6.4,12.57,47.84626,-54.09684
2020-12-10 07:09:01+00:00,359.4679,6.4,12.57,47.84626,-54.09684
2020-12-10 07:19:01+00:00,358.8612,6.56,12.57,47.84626,-54.09684
2020-12-10 07:29:01+00:00,358.0496,6.5,12.57,47.84626,-54.09684
2020-12-10 07:39:01+00:00,357.1478,6.4,12.57,47.84626,-54.09684
2020-12-10 07:49:01+00:00,359.9647,6.4,12.57,47.84626,-54.09684
2020-12-10 07:59:01+00:00,359.2029,6.5,12.57,47.84626,-54.09684
2020-12-10 08:09:01+00:00,352.2996,6.53,12.57,47.84626,-54.09684
2020-12-10 08:19:01+00:00,348.1013,6.5,12.57,47.84626,-54.09684
2020-12-10 08:29:01+00:00,348.5446,6.49,12.57,47.84626,-54.09684
2020-12-10 08:39:01+00:00,345.7529,6.4,12.57,47.84626,-54.09684
2020-12-10 08:49:01+00:00,339.8663,6.3,12.57,47.84626,-54.09684
2020-12-10 08:59:01+00:00,334.7247,6.27,12.57,47.84626,-54.09684
2020-12-10 09:09:01+00:00,331.343,6.16,12.57,47.84626,-54.09684
2020-12-10 09:19:01+00:00,321.6296,6.08,12.57,47.84626,-54.09684
2020-12-10 09:29:01+00:00,314.7179,6.04,12.57,47.84626,-54.09684
2020-12-10 09:39:01+00:00,309.7764,6.07,12.57,47.84626,-54.09684
2020-12-10 09:49:01+00:00,301.158,6.07,12.57,47.84626,-54.09684
2020-12-10 09:59:01+00:00,288.723,6.04,12.57,47.84626,-54.09684
2020-12-10 10:09:01+00:00,282.3697,6.08,12.57,47.84626,-54.09684
2020-12-10 10:19:01+00:00,277.2681,6.08,12.57,47.84626,-54.09684
2020-12-10 10:29:01+00:00,266.5114,6.05,12.57,47.84626,-54.09684
2020-12-10 10:39:01+00:00,260.1581,6.09,12.57,47.84626,-54.09684
2020-12-10 10:49:01+00:00,259.9581,6.1,12.57,47.84626,-54.09684
2020-12-10 10:59:01+00:00,256.1598,6.1,12.57,47.84626,-54.09684
2020-12-10 11:09:01+00:00,245.4281,6.11,12.57,47.84626,-54.09684
2020-12-10 11:19:01+00:00,239.9481,6.17,12.57,47.84626,-54.09684
2020-12-10 11:29:01+00:00,240.4464,6.2,12.57,47.84626,-54.09684
2020-12-10 11:39:01+00:00,236.2997,6.2,12.57,47.84626,-54.09684
2020-12-10 11:49:01+00:00,232.7564,6.2,12.57,47.84626,-54.09684
2020-12-10 11:59:01+00:00,233.1064,6.2,12.57,47.84626,-54.09684
2020-12-10 12:09:01+00:00,230.4414,6.0,12.57,47.84626,-54.09684
2020-12-10 12:19:01+00:00,223.9148,6.0,12.65,47.84626,-54.09684
2020-12-10 12:29:01+00:00,225.5848,6.02,12.65,47.84626,-54.09684
2020-12-10 12:39:01+00:00,226.6681,6.1,12.65,47.84626,-54.09684
2020-12-10 12:49:01+00:00,219.8148,6.0,12.65,47.84626,-54.09684
2020-12-10 12:59:01+00:00,214.1431,6.03,12.65,47.84626,-54.09684
2020-12-10 13:09:01+00:00,222.1564,6.17,12.65,47.84626,-54.09684
2020-12-10 13:19:01+00:00,221.8081,6.29,13.53,47.84626,-54.09684
2020-12-10 13:29:01+00:00,213.8848,6.2,13.53,47.84626,-54.09684
2020-12-10 13:39:01+00:00,213.1698,6.2,13.53,47.84626,-54.09684
2020-12-10 13:49:01+00:00,217.7214,6.2,13.53,47.84626,-54.09684
2020-12-10 13:59:01+00:00,216.5147,6.2,13.53,47.84626,-54.09684
2020-12-10 14:09:01+00:00,214.8115,6.19,13.53,47.84626,-54.09684
2020-12-10 14:19:01+00:00,217.7931,6.2,14.16,47.84626,-54.09684
2020-12-10 14:29:01+00:00,221.0131,6.2,14.16,47.84626,-54.09684
2020-12-10 14:39:01+00:00,219.2397,6.19,14.16,47.84626,-54.09684
2020-12-10 14:49:01+00:00,221.4198,6.2,14.16,47.84626,-54.09684
2020-12-10 14:59:01+00:00,227.1714,6.2,14.16,47.84626,-54.09684
2020-12-10 15:09:01+00:00,230.5497,6.2,14.16,47.84626,-54.09684
2020-12-10 15:19:01+00:00,232.8565,6.2,14.56,47.84626,-54.09684
2020-12-10 15:29:01+00:00,233.9264,6.2,14.56,47.84626,-54.09684
2020-12-10 15:39:01+00:00,235.1564,6.2,14.56,47.84626,-54.09684
2020-12-10 15:49:01+00:00,235.2647,6.2,14.56,47.84626,-54.09684
2020-12-10 15:59:01+00:00,236.3014,6.2,14.56,47.84626,-54.09684
2020-12-10 16:09:01+00:00,238.3831,6.2,14.56,47.84626,-54.09684
2020-12-10 16:19:01+00:00,240.5964,6.2,14.4,47.84626,-54.09684
2020-12-10 16:29:01+00:00,243.3581,6.2,14.4,47.84626,-54.09684
2020-12-10 16:39:01+00:00,248.8664,6.2,14.4,47.84626,-54.09684
2020-12-10 16:49:01+00:00,261.1031,6.21,14.4,47.84626,-54.09684
2020-12-10 16:59:01+00:00,269.693,6.26,14.4,47.84626,-54.09684
2020-12-10 17:09:01+00:00,266.2598,6.29,14.4,47.84626,-54.09684
2020-12-10 17:19:01+00:00,265.7964,6.29,14.56,47.84626,-54.09684
2020-12-10 17:29:01+00:00,280.548,6.29,14.56,47.84626,-54.09684
2020-12-10 17:39:01+00:00,295.7448,6.3,14.56,47.84626,-54.09684
2020-12-10 17:49:01+00:00,291.9897,6.3,14.56,47.84626,-54.09684
2020-12-10 17:59:01+00:00,291.6947,6.3,14.56,47.84626,-54.09684
2020-12-10 18:09:01+00:00,311.3229,6.3,14.56,47.84626,-54.09684
2020-12-10 18:19:01+00:00,319.3147,6.3,14.24,47.84626,-54.09684
2020-12-10 18:29:01+00:00,311.9896,6.3,14.24,47.84626,-54.09684
2020-12-10 18:39:01+00:00,329.2547,6.3,14.24,47.84626,-54.09684
2020-12-10 18:49:01+00:00,350.0862,6.3,14.24,47.84626,-54.09684
2020-12-10 18:59:01+00:00,347.9329,6.33,14.24,47.84626,-54.09684
2020-12-10 19:09:01+00:00,333.968,6.3,14.24,47.84626,-54.09684
2020-12-10 19:19:01+00:00,346.3463,6.3,13.6,47.84626,-54.09684
2020-12-10 19:29:01+00:00,354.5247,6.35,13.6,47.84626,-54.09684
2020-12-10 19:39:01+00:00,341.11300000000006,6.3,13.6,47.84626,-54.09684
2020-12-10 19:49:01+00:00,336.6247,6.3,13.6,47.84626,-54.09684
2020-12-10 19:59:01+00:00,346.8063,6.3,13.6,47.84626,-54.09684
2020-12-10 20:09:01+00:00,352.5412,6.32,13.6,47.84626,-54.09684
2020-12-10 20:19:01+00:00,345.48800000000006,6.35,13.13,47.84626,-54.09684
2020-12-10 20:29:01+00:00,346.5096,6.33,13.13,47.84626,-54.09684
2020-12-10 20:39:01+00:00,354.7062,6.36,13.13,47.84626,-54.09684
2020-12-10 20:49:01+00:00,349.1913,6.39,13.13,47.84626,-54.09684
2020-12-10 20:59:01+00:00,347.64300000000014,6.4,13.13,47.84626,-54.09684
2020-12-10 21:09:01+00:00,353.9563,6.4,13.13,47.84626,-54.09684
2020-12-10 21:19:01+00:00,351.2813,6.4,12.89,47.84626,-54.09684
2020-12-10 21:29:01+00:00,341.7246,6.32,12.89,47.84626,-54.09684
2020-12-10 21:39:01+00:00,344.2164,6.3,12.89,47.84626,-54.09684
2020-12-10 21:49:01+00:00,342.1946,6.3,12.89,47.84626,-54.09684
2020-12-10 21:59:01+00:00,332.7530000000001,6.3,12.89,47.84626,-54.09684
2020-12-10 22:09:01+00:00,328.3713,6.3,12.89,47.84626,-54.09684
2020-12-10 22:19:01+00:00,332.61300000000006,6.3,12.81,47.84626,-54.09684
2020-12-10 22:29:01+00:00,319.7996,6.3,12.81,47.84626,-54.09684
2020-12-10 22:39:01+00:00,307.4647,6.24,12.81,47.84626,-54.09684
2020-12-10 22:49:01+00:00,307.7047,6.2,12.81,47.84626,-54.09684
2020-12-10 22:59:01+00:00,298.8947,6.2,12.81,47.84626,-54.09684
2020-12-10 23:09:01+00:00,281.1314,6.2,12.81,47.84626,-54.09684
2020-12-10 23:19:01+00:00,273.8481,6.2,12.73,47.84626,-54.09684
2020-12-10 23:29:01+00:00,272.7464,6.18,12.73,47.84626,-54.09684
2020-12-10 23:39:01+00:00,258.1314,6.1,12.73,47.84626,-54.09684
2020-12-10 23:49:01+00:00,240.6065,6.1,12.73,47.84626,-54.09684
2020-12-10 23:59:01+00:00,241.5731,6.0,12.73,47.84626,-54.09684
